Location: Ash Swamp
(41.5170°N, 74.6157°W)
Time: 02:40:26
(UTC+00:00)

Cosmos 1943 Rocket - Pass Details

Date: 14 July 2020
Orbit: 811 x 845 km, 71.0° (Epoch: 14 August)

Event Time Altitude Azimuth Distance (km) Brightness Sun altitude
Rises 03:08:41 0° 340° (NNW) 3,411 6.8 -21.4°
Reaches altitude 10° 03:11:13 10° 345° (NNW) 2,471 5.7 -21.6°
Maximum altitude 03:16:45 53° 62° (ENE) 1,028 2.6 -22.1°
Enters shadow 03:18:23 40° 111° (ESE) 1,223 2.7 -22.3°
